Location: Dal�� Lhota
(48.7500°N, 14.0167°E)
Time: 06:03:14
(UTC+00:00)

Transit 2A - Pass Details

Date: 03 August 2021
Orbit: 594 x 964 km, 66.7° (Epoch: 24 September)

Event Time Altitude Azimuth Distance (km) Brightness Sun altitude
Rises 12:46:31 0° 325° (NW) 3,201 9.1 53.0°
Reaches altitude 10° 12:48:50 10° 329° (NNW) 2,330 8.5 52.8°
Maximum altitude 12:54:11 66° 51° (NE) 912 6.9 52.2°
Drops below altitude 10° 13:00:06 10° 134° (SE) 2,560 8.8 51.5°
Sets 13:02:43 0° 137° (SE) 3,541 9.5 51.2°
